Satellite-Ground Cal/Val Site Overpasses Predictions

Prediction of Satellite NPP Overpassing Cal/Val Site: Antarctic Dome C

Ground Cal/Val Site Location: Latitude: -75.10, Longitude: 123.35; Satellite-Ground Site NADIR distance within 100 km.

Table of predicted overpasses for the next 14.0 days since TLE Epoch: 7/27/2019
Interval Starting Time Ending Time Minimum Distance Time Minimum Distance (km)
1 07/27/2019 07:31:46 07/27/2019 07:32:15 07/27/2019 07:32:01 1.24
2 07/30/2019 14:55:15 07/30/2019 14:55:43 07/30/2019 14:55:29 23.23
3 07/31/2019 14:36:32 07/31/2019 14:36:47 07/31/2019 14:36:39 83.84
4 08/01/2019 07:38:05 08/01/2019 07:38:32 08/01/2019 07:38:19 36.10
5 08/02/2019 07:19:19 08/02/2019 07:19:38 08/02/2019 07:19:29 73.99
6 08/04/2019 15:01:34 08/04/2019 15:01:57 08/04/2019 15:01:46 60.31
7 08/05/2019 14:42:44 08/05/2019 14:43:10 08/05/2019 14:42:57 48.87
8 08/06/2019 07:44:26 08/06/2019 07:44:46 08/06/2019 07:44:36 71.22
9 08/07/2019 07:25:33 08/07/2019 07:26:00 08/07/2019 07:25:47 36.72


NCC Satellite Cal/Val Overpasses Prediction Service
